Location: 相模原市立博物館
(35.5593°N, 139.3931°E)
Time: 19:21:59
(UTC+09:00)

ISS - Visible Passes

Search period start: 21 September 2018 00:00
Search period end: 01 October 2018 00:00
Orbit: 403 x 408 km, 51.6° (Epoch: 21 September)

Date Brightness Start Highest point End Pass type
(mag) Time Alt. Az. Time Alt. Az. Time Alt. Az.
21 Sep -3.9 18:57:30 10° SW 19:00:44 61° SE 19:01:22 48° E visible
22 Sep -2.8 18:06:09 10° SSW 18:09:00 28° SE 18:11:52 10° ENE visible
22 Sep -1.6 19:42:40 10° W 19:45:12 25° NW 19:45:12 25° NW visible
23 Sep -2.8 18:50:21 10° WSW 18:53:31 46° NW 18:56:03 15° NNE visible
24 Sep -3.8 17:58:21 10° SW 18:01:39 84° SE 18:04:57 10° NE visible
24 Sep -0.9 19:36:49 10° WNW 19:38:32 13° NNW 19:39:24 12° N visible
25 Sep -1.4 18:43:51 10° W 18:46:26 21° NNW 18:49:00 10° NNE visible
27 Sep -0.9 18:38:16 10° NW 18:39:28 11° NNW 18:40:40 10° N visible
